Location: La Hardellière
(47.2968°N, 0.7780°E)
Time: 23:05:26
(UTC+00:00)

Daily predictions for brighter satellites

Satellite Brightness Start Highest point End
(mag) Time Altitude Azimuth Time Altitude Azimuth Time Altitude Azimuth
CENTAUR R/B 3.7 16:34:39 10° W 16:40:09 35° NNW 16:46:55 10° NE
Cosmos 1697 Rocket 3.1 16:35:26 10° S 16:40:45 47° ESE 16:46:06 10° NE
Cosmos 2360 4.3 16:36:35 10° SSW 16:42:18 86° WNW 16:48:05 10° NNE
Cosmos 1626 Rocket 3.9 16:39:18 10° NNW 16:43:37 70° W 16:47:52 10° S
CZ-2D R/B 4.1 16:41:49 10° ESE 16:44:07 19° ENE 16:46:27 10° NNE
NOSS 2-3 (C) 4.5 16:41:57 10° S 16:44:42 22° ESE 16:47:31 10° ENE
Cosmos 2266 Rocket 4.0 16:43:23 10° N 16:49:28 61° ENE 16:55:26 10° SSE
Cosmos 1656 4.3 16:44:36 10° SW 16:50:09 58° WNW 16:55:48 10° NNE
Cosmos 2228 4.4 16:47:10 10° SW 16:51:09 40° WNW 16:55:12 10° N
Cosmos 1606 Rocket 4.1 16:48:01 10° SSE 16:52:06 38° E 16:56:14 10° NNE
Cosmos 1503 Rocket 4.0 16:49:03 10° SSW 16:54:17 80° ESE 16:59:30 10° NNE
Lacrosse 5 rocket 2.9 16:53:19 10° NW 16:56:02 19° N 16:58:42 10° NE
EXPRESS MD2 4.5 16:55:10 10° S 16:56:49 16° SE 16:58:50 10° E
Cosmos 1484 Rocket 2.9 16:55:47 10° S 16:59:17 69° WSW 17:02:46 10° NNW
CZ-4C R/B 3.2 16:52:32 10° NW 16:59:34 81° SW 17:08:19 10° SSE
UNK 4.0 16:55:13 10° NNE 16:59:41 50° E 17:04:05 10° S
Thor Agena Rocket 3.5 16:55:19 10° SSE 17:00:29 73° ENE 17:05:38 10° NNW
Cosmos 1544 Rocket 4.3 16:57:10 10° SSW 17:01:29 57° WNW 17:05:52 10° N
Cosmos 1743 3.0 16:58:41 10° NNW 17:01:54 57° W 17:05:03 10° S
NOSS 2-3 (D) 3.6 17:00:24 10° SSW 17:03:55 43° ESE 17:07:03 13° NE
NOSS 2-3 (E) 3.5 17:01:02 10° SSW 17:04:33 47° SE 17:07:44 13° NE
Cosmos 1354 Rocket 4.0 17:00:05 10° SSW 17:05:18 71° ESE 17:10:33 10° NNE
IGS 5A 3.6 17:02:47 10° S 17:06:44 74° W 17:10:43 10° NNW
Cosmos 1777 Rocket 4.3 17:02:19 10° SSW 17:07:33 70° WNW 17:12:47 10° NNE
Cosmos-2242 4.3 17:06:04 10° SE 17:09:05 19° E 17:11:23 13° NE
USA 238 DEB 4.0 17:03:33 10° S 17:09:12 43° ESE 17:14:48 12° NE
USA 238 4.0 17:03:40 10° S 17:09:19 42° ESE 17:14:54 12° NE
Cosmos 2151 3.2 17:05:51 10° NNW 17:10:00 71° W 17:14:09 10° S
MOS 1 Rocket 3.8 17:05:25 10° SE 17:10:09 45° ENE 17:15:07 10° N
Gbstr 26 Del rocket 2.7 17:09:26 10° WSW 17:13:37 87° SSE 17:16:29 17° ENE
Cosmos 1726 Rocket 3.9 17:10:08 10° SSE 17:14:36 49° E 17:19:01 10° NNE
USA 215 4.0 17:12:07 12° ENE 17:17:33 39° N 17:23:32 10° WNW
AQUARIUS 4.3 17:13:29 10° SE 17:17:43 49° ENE 17:22:00 10° N
IRIDIUM 104 4.4 17:12:46 10° N 17:18:01 85° W 17:23:14 10° S
Cosmos 2082 4.3 17:12:58 10° NNW 17:18:10 34° NE 17:23:20 10° ESE
SMAP 3.0 17:14:21 10° SSE 17:19:00 87° E 17:23:42 10° NNW
Meteor 1-20 Rocket 4.5 17:14:21 10° NNW 17:19:48 71° W 17:25:14 10° S
Cosmos 1805 4.1 17:18:21 10° NNE 17:20:57 20° ENE 17:23:32 10° ESE
Cosmos 2297 Rocket 3.8 17:16:46 10° NW 17:21:59 39° WSW 17:27:11 10° S
Landsat 7 3.7 17:18:30 10° SSE 17:23:08 76° ENE 17:27:48 10° N
GEOS 3 Rocket 3.7 17:19:09 13° NE 17:24:03 69° SE 17:29:23 10° SSW
YAOGAN 1 3.5 17:22:37 10° ESE 17:26:03 24° ENE 17:29:31 10° N
Cosmos 1937 Rocket 4.5 17:24:34 10° SSE 17:28:46 26° E 17:30:51 20° ENE
SL-16 R/B 4.1 17:28:38 10° ESE 17:29:26 11° ESE 17:29:26 11° ESE
Okean 1-7 Rocket 4.1 17:26:37 10° NNW 17:30:57 62° W 17:35:13 10° S
Cosmos 990 Rocket 4.0 17:27:34 10° SSW 17:32:42 82° WNW 17:37:53 10° NNE
Cosmos 1461 4.2 17:29:40 10° WSW 17:33:09 31° NW 17:36:23 12° NNE
CZ-2D R/B 4.1 17:30:20 10° SE 17:34:04 32° ENE 17:37:46 10° N
SL-16 R/B 3.4 17:29:45 10° N 17:35:44 51° WNW 17:41:40 10° SW
COSMOS 2455 4.0 17:32:53 10° SSE 17:37:17 21° ESE 17:38:36 20° E
SKYMED 2 4.1 17:35:14 18° NE 17:37:55 36° E 17:41:55 10° SSE
Okean 1 3.9 17:35:11 10° SSE 17:38:17 27° E 17:38:21 27° E
SJ-6F 4.2 17:40:25 10° SSE 17:44:23 78° ENE 17:48:26 10° N
Cosmos 1980 Rocket 2.2 17:39:27 10° SSW 17:45:03 68° ESE 17:49:21 18° NNE
Cosmos 1844 Rocket 3.7 17:40:29 10° N 17:45:04 24° NE 17:45:49 24° ENE
Cosmos 2219 3.2 17:39:48 10° NNW 17:45:30 62° ENE 17:51:12 10° SE
Aureole 1 Rocket 3.4 17:42:32 10° S 17:47:02 67° ESE 17:51:47 15° NNE
Cosmos 1953 Rocket 3.5 17:43:27 10° N 17:47:56 86° E 17:52:23 10° S
Meteor 1-26 Rocket 4.3 17:43:14 10° SSE 17:48:22 47° E 17:52:49 14° NNE
PSLV R/B 4.0 17:49:59 33° ENE 17:50:10 33° ENE 17:53:51 10° N
ARIANE 5 R/B 3.0 17:47:06 10° S 17:52:08 64° WSW 17:57:15 10° NNW
SL-19 R/B 4.5 17:47:58 10° SE 17:53:07 45° ENE 17:58:33 10° N
Cosmos 2263 Rocket 2.2 17:48:00 10° NNW 17:53:43 83° WSW 17:59:24 10° SSE
BREEZE-M DEB (TANK) 3.0 17:53:09 10° SW 17:56:56 35° SSE 17:57:14 34° SE
Meteor 1-5 Rocket 4.5 17:52:57 10° NNW 17:58:17 67° W 18:03:44 10° S
NOSS 3-2 (C) 4.2 17:54:01 10° WSW 17:58:57 39° NW 18:03:20 17° NNE
Cosmos 1680 Rocket 3.9 17:54:12 10° N 17:59:03 38° ENE 18:00:24 32° E
COSMO-SKYMED 1 2.9 17:59:08 39° E 17:59:15 39° E 18:03:06 10° SSE
BREEZE-M DEB (TANK) 3.8 17:55:43 10° WNW 17:59:17 84° NNE 18:06:53 19° ESE
NOAA 6 4.3 17:57:39 10° SE 18:02:25 42° ENE 18:07:12 10° N
Cosmos 1076 Rocket 4.0 17:58:17 10° NNW 18:02:33 61° W 18:06:47 10° S
Cosmos 2369 3.8 17:57:12 10° S 18:02:44 54° ESE 18:05:20 30° NE
Meteor 2-10 4.1 17:57:22 10° N 18:02:49 86° E 18:08:24 10° S
Cosmos 1655 Rocket 4.4 18:05:21 10° NNW 18:11:30 64° W 18:17:36 10° S
USA 81 4.0 18:06:42 10° N 18:11:59 85° W 18:17:15 10° S
Cosmos 44 Rocket 4.1 18:07:22 10° NNW 18:11:53 34° NE 18:11:53 34° NE
Cosmos 2227 Rocket 3.8 18:08:34 10° NW 18:13:38 35° WSW 18:18:41 10° S
SPOT 1/Viking Rocket 3.6 18:10:59 10° S 18:16:11 79° WSW 18:21:26 10° NNW
Cosmos 2058 Rocket 3.3 18:18:55 10° SSW 18:23:22 68° W 18:26:26 20° N
Cosmos 1697 Rocket 4.1 18:19:50 10° WSW 18:24:52 33° NW 18:29:16 13° N
OceanSat 1 rocket 4.4 18:21:07 10° SSE 18:25:49 71° ENE 18:30:31 10° N
Cosmos 2333 Rocket 3.9 18:27:49 10° SSE 18:29:34 18° SSE 18:29:34 18° SSE
CENTAUR R/B 4.3 18:27:42 10° NW 18:33:07 23° N 18:35:36 20° NNE
Lacrosse 5 rocket 3.3 18:31:09 10° NW 18:32:26 16° NNW 18:32:26 16° NNW
NOSS 2-3 (C) 4.4 18:31:33 10° WSW 18:34:41 32° NW 18:34:52 32° NNW
Meteor 2-11 Rocket 4.3 18:28:44 10° N 18:34:57 78° E 18:41:05 10° SSE
MINOTAUR IV R/B 4.4 18:30:50 10° NNW 18:35:15 87° WSW 18:35:26 82° S
Meteor 1-14 Rocket 4.1 18:33:23 10° N 18:39:07 63° ENE 18:39:10 63° E
Resurs 1-3 4.0 18:38:52 10° S 18:43:06 59° W 18:47:23 10° NNW
Cosmos 2322 Rocket 4.4 18:38:54 10° SSE 18:39:03 11° SSE 18:39:03 11° SSE
Cosmos-2242 4.1 18:41:46 10° SSW 18:45:49 42° WNW 18:47:46 26° NNW
Cosmos 1898 Rocket 4.3 18:49:57 10° SW 18:54:55 47° WNW 18:56:44 33° NNW
Cosmos 1844 4.3 18:50:46 10° NNW 18:54:37 42° N 18:54:37 42° N
USA 215 3.7 18:59:28 43° NNE 18:59:45 44° NNE 19:05:52 10° NW
USA 238 DEB 4.2 18:54:03 10° WSW 19:00:02 49° NW 19:02:15 36° N
USA 238 4.2 18:54:08 10° WSW 19:00:08 49° NW 19:02:21 36° N
Cosmos 1553 Rocket 4.4 18:54:07 10° SSW 19:00:12 61° WNW 19:06:27 10° N
S3M 4.2 18:54:23 10° S 18:59:17 53° SSE 18:59:17 53° SSE
Cosmos 2112 Rocket 4.3 18:55:38 10° NNW 18:59:47 58° NNW 18:59:47 58° NNW
YAOGAN 1 4.0 18:57:48 10° SSW 19:01:44 36° W 19:05:42 10° NNW
BREEZE-M DEB (TANK) 3.5 19:00:34 10° SW 19:06:16 55° SSW 19:06:16 55° SSW
Cosmos 1937 Rocket 4.3 19:05:22 10° SW 19:10:21 47° WNW 19:10:58 45° NW
Meteor 2-6 Rocket 4.5 19:04:58 10° SSW 19:10:38 68° WNW 19:11:37 57° NNW
Cosmos 2237 4.4 19:07:21 10° SW 19:12:59 69° WNW 19:12:59 69° WNW
SL-16 R/B 3.1 19:07:58 10° SSW 19:11:20 37° SSW 19:11:20 37° SSW
Cosmos 1745 Rocket 4.0 19:10:50 10° NNW 19:16:59 73° W 19:23:04 10° S
COSMOS 2455 3.1 19:16:32 10° SW 19:21:46 65° WSW 19:21:46 65° WSW
Cosmos 1844 Rocket 3.7 19:23:51 10° NNW 19:27:31 41° NW 19:27:31 41° NW
Cosmos 1980 Rocket 4.0 19:24:56 10° W 19:29:33 25° NW 19:31:06 22° NNW
